Regional Weather Roundup
Issued by NWS Charleston, SC

Current Version | Previous Version | Text Only | Print | Product List | Glossary Off
Versions: 1 2 3 4 5 6 7 8 9 10 11 12 13 14 15 16 17 18 19 20 21 22 23 24 25 26 27 28 29 30 31 32 33 34 35 36 37 38 39 40 41 42 43 44 45 46 47 48 49 50

000
ASUS42 KCHS 201310
RWRCHS
REGIONAL WEATHER ROUNDUP
NATIONAL WEATHER SERVICE CHARLESTON SC
900 AM EDT SAT SEP 20 2014

NOTE: "FAIR" INDICATES FEW OR NO CLOUDS BELOW 12,000 FEET WITH NO
SIGNIFICANT WEATHER AND/OR OBSTRUCTIONS TO VISIBILITY.

NOT ALL STATIONS ARE QUALITY CONTROLLED BY THE NATIONAL
WEATHER SERVICE. USE DATA WITH CAUTION...ESPECIALLY
DEWPOINT OBSERVATIONS.

SCZ027-030-031-034>040-042>050-201400-
...SOUTH CAROLINA...

CITY           SKY/WX    TMP DP  RH WIND       PRES   REMARKS
N CHARLESTON   CLOUDY    70  66  87 N12       30.06R
WATERFRONT PRK NOT AVBL
FORT JOHNSON   NOT AVBL
MOUNT PLEASANT LGT RAIN  70  66  88 N6        30.06R
JOHNS ISLAND   CLOUDY    70  70 100 N8        30.05S
PINOPOLIS        N/A     70  64  83 NE16      30.00R
MONCKS CORNER    N/A     68  66  94 NE10G16   30.08S
SUMMERVILLE    FAIR      68  68 100 N7        30.08S
BEAUFORT MCAS  CLOUDY    70  67  90 W12       30.05S
BEAUFORT ARPT  CLOUDY    70  70 100 NE15      30.04S
HILTON HEAD IS PTSUNNY   72  72 100 N13       30.04S
GEORGETOWN     NOT AVBL
WALTERBORO     CLOUDY    68 N/A N/A N7        30.08S
ORANGEBURG     MOSUNNY   65  60  84 NE9       30.11S
BARNWELL       FAIR      66  63  88 NE10      30.11S
AIKEN          FAIR      66  66 100 NE12G20   30.16S
MANNING        FAIR      66  66 100 NE8       30.10S
KINGSTREE      NOT AVBL
COLUMBIA       MOSUNNY   70  59  68 NE9       30.13F
SUMTER         SUNNY     64  58  80 NE13      30.12S
FLORENCE       PTSUNNY   65  59  81 NE9       30.14R
MYRTLE BEACH   SUNNY     68  61  77 NE16      30.08S
N MYRTLE BEACH CLOUDY    68  61  78 NE12      30.09S

$$

GAZ063-065-086>088-099>101-113>116-118-119-134-136>141-150-201400-
...GEORGIA...

CITY           SKY/WX    TMP DP  RH WIND       PRES   REMARKS
SAVANNAH ARPT  CLOUDY    72  68  87 N9        30.03S
HUNTER AAF     CLOUDY    72  71  98 N10G17    30.01R
FORT STEWART   CLOUDY    72  68  88 N13G21    30.00F
STATESBORO     NOT AVBL
SYLVANIA       CLOUDY    71  69  92 NE10      30.09S
CLAXTON        CLOUDY    72  72 100 NE10      30.05F
THOMSON        MOSUNNY   70  68  93 NE7       30.18S
AUGUSTA-BUSH   SUNNY     69  63  81 NE9       30.12R
AUGUSTA-DANIEL SUNNY     70  62  76 NE13      30.13S
SWAINSBORO     CLOUDY    72  72 100 NE9       30.10R FOG
VIDALIA        CLOUDY    72  68  88 NE10      30.07R
ALMA           PTSUNNY   73  68  84 VRB5      30.02S
WAYCROSS       CLOUDY    74  73  94 NE8       30.01R
JESUP          CLOUDY    73  72  94 NE6       30.02R
BRUNSWICK      CLOUDY    73  70  88 CALM      30.00S
SAINT SIMONS   CLOUDY    73  69  87 NE13      29.98S

$$

SCZ027-028-034-036>038-045-046-048>050-GAZ119-141-201400-
...LAKE AND SUPPLEMENTAL COASTAL OBSERVATIONS...

STATION/POSITION TIME  TEMP    WIND        PRES    WAVE   SWELL
                       AIR SEA DIR/SP/G            HT/PER HT/PER/DIR
                 (UTC) (F)     (DEG/KT/KT) (MB)    (FT/S) (FT/S/D)
UPR LAKE MARION  NOT AVBL
WINYAH BAY       1200   69      20/  9     1018.0S
LAKE MURRAY      1200   66      20/  3/  7 1020.3S
ACE BASIN NERRS  1200   69      10/  3     1017.0S
FORT PULASKI     1300   74      10/ 14/ 17 1016.7R
SAPELO ISLAND    1200   72      80/  7     1016.0S

$$

ANZ835-935-AMZ111-154-330-350-352-354-374-450-454-472-201400-
...C-MAN AND BUOY OBSERVATIONS...

STATION/POSITION TIME  TEMP    WIND        PRES    WAVE   SWELL
                       AIR SEA DIR/SP/G            HT/PER HT/PER/DIR
                 (UTC) (F)     (DEG/KT/KT) (MB)    (FT/S) (FT/S/D)
FOLLY BEACH CMAN 1200   71      20/ 14/ 18 1017.6S
BUOY 41004       1300   81 82   60/ 19/ 25 1015.1F   8/ 8   3/15
BUOY 41008       1300   77 83   80/ 16/ 19 1015.1R   6/ 8
5E ST. MARYS GA  1300      84                N/A     5/ 6
FRYING PAN BUOY  NOT AVBL
BUOY 41025       1300   79      80/ 21/ 25 1018.1F   7/ 8   3/ 60/ 8
CAPE LOOKOUT NC  1200   72      20/ 13/ 16 1019.2S
BUOY 41002       1213   74 82   60/ 12/ 16 1016.7F   7/ 7   7/ 50/ 7
BUOY 41010       1300   78 84  150/ 16/ 17 1012.3F   6/ 7   5/ 40/ 7
BUOY 41012       NOT AVBL
ST AUGUSTINE FL  1300   72     340/  7/ 10 1014.4F
CAPERS NEARSHORE 1200   73      40/ 19/ 23   N/A
FRIPP NEARSHORE  NOT AVBL


$$


USA.gov is the U.S. government's official web portal to all federal, state and local government web resources and services.